This is the latest recevied weather packets stored in our database for station/object W1LBM. If no packets are shown the sender has not sent any weather packets the latest 10 day(s).
| Time | Temp. | Humidity | Pressure | Rain* | Wind** | Luminosity | Snow |
|---|---|---|---|---|---|---|---|
| 1777226241 | 13.89° C | 44% | 1023.6 hPa | 0 mm | - | 728 W/m² | - |
| 1777225937 | 13.89° C | 49% | 1023.4 hPa | 0 mm | - | 699 W/m² | - |
| 1777225633 | 13.89° C | 50% | 1023.5 hPa | 0 mm | - | 715 W/m² | - |
| 1777225330 | 13.89° C | 46% | 1023.4 hPa | 0 mm | - | 554 W/m² | - |
| 1777225027 | 13.33° C | 49% | 1023.7 hPa | 0 mm | - | 706 W/m² | - |
| 1777224724 | 12.78° C | 49% | 1023.6 hPa | 0 mm | - | 423 W/m² | - |
| 1777224419 | 12.22° C | 49% | 1023.6 hPa | 0 mm | - | 366 W/m² | - |
| 1777224115 | 12.22° C | 50% | 1023.8 hPa | 0 mm | - | 317 W/m² | - |
| 1777223812 | 11.67° C | 51% | 1023.5 hPa | 0 mm | - | 296 W/m² | - |
| 1777223513 | 12.22° C | 50% | 1023.7 hPa | 0 mm | - | 280 W/m² | - |
| 1777223211 | 12.22° C | 49% | 1023.7 hPa | 0 mm | - | 268 W/m² | - |
| 1777222909 | 11.67° C | 50% | 1023.7 hPa | 0 mm | - | 250 W/m² | - |
| 1777222605 | 11.67° C | 50% | 1023.6 hPa | 0 mm | - | 240 W/m² | - |
| 1777222303 | 11.67° C | 50% | 1023.8 hPa | 0 mm | - | 245 W/m² | - |
| 1777222001 | 11.67° C | 53% | 1023.7 hPa | 0 mm | - | 254 W/m² | - |
| 1777221697 | 11.11° C | 51% | 1023.9 hPa | 0 mm | - | 262 W/m² | - |
| 1777221393 | 11.67° C | 53% | 1023.9 hPa | 0 mm | - | 246 W/m² | - |
| 1777221091 | 11.67° C | 50% | 1023.7 hPa | 0 mm | - | 237 W/m² | - |
| 1777220791 | 11.67° C | 52% | 1023.9 hPa | 0 mm | - | 224 W/m² | - |
| 1777220487 | 11.67° C | 50% | 1023.8 hPa | 0 mm | - | 214 W/m² | - |
| 1777220182 | 11.11° C | 53% | 1023.7 hPa | 0 mm | - | 212 W/m² | - |
| 1777219879 | 11.11° C | 51% | 1023.9 hPa | 0 mm | - | 234 W/m² | - |
| 1777219576 | 10.56° C | 51% | 1023.8 hPa | 0 mm | - | 274 W/m² | - |
| 1777219273 | 10.56° C | 52% | 1024 hPa | 0 mm | - | 304 W/m² | - |
| 1777218969 | 11.11° C | 50% | 1024.1 hPa | 0 mm | - | 296 W/m² | - |
* Rain latest hour (hover to see other rain measurements)
** Current wind speed in m/s (hover to see current wind gust speed)